{"data":{"norad_id":60265,"epoch":"2026-05-25T04:01:13.111104Z","epoch_age_seconds":67390,"freshness":"FRESH","line1":"1 60265U 24131L   26145.16751286  .00000760  00000+0  38642-4 0  9993","line2":"2 60265  53.1621  57.4892 0001286  79.1277 280.9868 15.29364617103474","mean_motion":15.29364617,"eccentricity":0.0001286,"inclination_deg":53.1621,"raan_deg":57.4892,"arg_perigee_deg":79.1277,"mean_anomaly_deg":280.9868,"bstar":3.8642e-5,"rev_number":10347,"period_min":94.156748756533,"perigee_km":476.82884580361,"apogee_km":478.59216978261,"semimajor_km":6855.8475077931,"source":"CELESTRAK","updated_at":"2026-05-25T13:38:19.200358Z"}}